• In India
  • List of Countries
  • For 7 days
  • Water Temperature
  • Satellite Maps
  • Weather Map
  • Weather Widgets
  • user-avatar
    Login

    Hourly Weather Kaprun

    Today, 23 January, Tuesday

    Time Temperature Precipitation Wind Pressure Humidity
    00:00 -4°C° 0.7 mm 2 mps 593 mmHg 96%
    01:00 -4°C° 0 mm 2 mps 593 mmHg 96%
    02:00 -5°C° 0.5 mm 2 mps 594 mmHg 96%
    03:00 -6°C° 0.5 mm 3 mps 594 mmHg 96%
    04:00 -6°C° 0.5 mm 3 mps 594 mmHg 96%
    05:00 -7°C° 0.9 mm 3 mps 595 mmHg 96%
    06:00 -7°C° 0.9 mm 3 mps 595 mmHg 95%
    07:00 -6°C° 0 mm 2 mps 596 mmHg 95%
    08:00 -6°C° 0.5 mm 2 mps 596 mmHg 95%
    09:00 -6°C° 0.5 mm 2 mps 597 mmHg 94%
    10:00 -6°C° 0.5 mm 2 mps 597 mmHg 94%
    11:00 -5°C° 0.1 mm 2 mps 598 mmHg 94%
    12:00 -5°C° 0.1 mm 2 mps 598 mmHg 93%
    13:00 -5°C° 0.1 mm 2 mps 599 mmHg 93%
    14:00 -5°C° 0 mm 2 mps 599 mmHg 93%
    15:00 -5°C° 0 mm 2 mps 599 mmHg 93%
    16:00 -4°C° 0 mm 1 mps 599 mmHg 93%
    17:00 -6°C° 0 mm 1 mps 598 mmHg 89%
    18:00 -7°C° 0 mm 1 mps 598 mmHg 86%
    19:00 -9°C° 0 mm 1 mps 598 mmHg 82%
    20:00 -9°C° 0 mm 1 mps 598 mmHg 78%
    21:00 -9°C° 0 mm 1 mps 598 mmHg 73%
    22:00 -9°C° 0 mm 1 mps 598 mmHg 68%
    23:00 -9°C° 0 mm 1 mps 598 mmHg 66%

    Tomorrow, 24 January, Wednesday

    Time Temperature Precipitation Wind Pressure Humidity
    00:00 -9°C° 0 mm 1 mps 598 mmHg 65%
    01:00 -9°C° 0 mm 1 mps 599 mmHg 63%
    02:00 -9°C° 0 mm 1 mps 599 mmHg 62%
    03:00 -9°C° 0 mm 1 mps 599 mmHg 61%
    04:00 -10°C° 0 mm 2 mps 599 mmHg 61%
    05:00 -10°C° 0 mm 2 mps 599 mmHg 60%
    06:00 -9°C° 0 mm 2 mps 599 mmHg 59%
    07:00 -9°C° 0 mm 2 mps 599 mmHg 59%
    08:00 -7°C° 0 mm 1 mps 599 mmHg 62%
    09:00 -4°C° 0 mm 1 mps 600 mmHg 65%
    10:00 -2°C° 0 mm 1 mps 601 mmHg 69%
    11:00 -1°C° 0 mm 1 mps 601 mmHg 75%
    12:00 0°C° 0 mm 1 mps 601 mmHg 81%
    13:00 -2°C° 0 mm 2 mps 601 mmHg 87%
    14:00 -2°C° 0 mm 2 mps 600 mmHg 86%
    15:00 -3°C° 0 mm 2 mps 600 mmHg 85%
    16:00 -3°C° 0 mm 2 mps 600 mmHg 83%
    17:00 -5°C° 0 mm 2 mps 599 mmHg 79%
    18:00 -6°C° 0 mm 2 mps 599 mmHg 76%
    19:00 -7°C° 0 mm 2 mps 598 mmHg 72%
    20:00 -8°C° 0 mm 2 mps 598 mmHg 71%
    21:00 -8°C° 0 mm 2 mps 598 mmHg 70%
    22:00 -8°C° 0 mm 2 mps 597 mmHg 69%
    23:00 -8°C° 0 mm 2 mps 597 mmHg 68%

    Day after tomorrow, 25 January, Thursday

    Time Temperature Precipitation Wind Pressure Humidity
    00:00 -8°C° 0 mm 2 mps 597 mmHg 68%
    01:00 -8°C° 0 mm 2 mps 597 mmHg 68%
    02:00 -8°C° 0 mm 2 mps 597 mmHg 67%
    03:00 -8°C° 0 mm 2 mps 597 mmHg 67%
    04:00 -8°C° 0 mm 2 mps 596 mmHg 67%
    05:00 -8°C° 0 mm 2 mps 596 mmHg 67%
    06:00 -8°C° 0 mm 2 mps 596 mmHg 67%
    07:00 -8°C° 0 mm 2 mps 596 mmHg 67%
    08:00 -7°C° 0 mm 2 mps 596 mmHg 70%
    09:00 -6°C° 0 mm 2 mps 597 mmHg 74%
    10:00 -5°C° 0 mm 2 mps 597 mmHg 77%
    11:00 -4°C° 0 mm 2 mps 597 mmHg 82%
    12:00 -3°C° 0 mm 2 mps 596 mmHg 86%
    13:00 -4°C° 0 mm 3 mps 596 mmHg 91%
    14:00 -4°C° 0 mm 3 mps 595 mmHg 92%
    15:00 -5°C° 0 mm 3 mps 595 mmHg 92%
    16:00 -5°C° 0 mm 3 mps 594 mmHg 93%
    17:00 -6°C° 0 mm 3 mps 594 mmHg 93%
    18:00 -7°C° 0 mm 3 mps 594 mmHg 92%
    19:00 -7°C° 0 mm 3 mps 593 mmHg 92%
    20:00 -8°C° 0 mm 3 mps 593 mmHg 92%
    21:00 -7°C° 0 mm 2 mps 593 mmHg 92%
    22:00 -7°C° 0 mm 2 mps 593 mmHg 91%
    23:00 -7°C° 0 mm 2 mps 593 mmHg 92%

    26 January, Friday

    Time Temperature Precipitation Wind Pressure Humidity
    00:00 -7°C° 0 mm 2 mps 593 mmHg 92%
    01:00 -8°C° 0 mm 3 mps 593 mmHg 92%
    02:00 -8°C° 0 mm 3 mps 592 mmHg 91%
    03:00 -8°C° 0 mm 3 mps 592 mmHg 91%
    04:00 -8°C° 0 mm 3 mps 592 mmHg 91%
    05:00 -8°C° 0 mm 3 mps 592 mmHg 91%
    06:00 -8°C° 0 mm 3 mps 592 mmHg 91%
    07:00 -8°C° 0 mm 3 mps 592 mmHg 91%
    08:00 -6°C° 0.1 mm 2 mps 592 mmHg 92%
    09:00 -5°C° 0.1 mm 2 mps 593 mmHg 93%
    10:00 -4°C° 0.1 mm 2 mps 593 mmHg 94%
    11:00 -4°C° 0.1 mm 2 mps 593 mmHg 95%
    12:00 -3°C° 0.1 mm 2 mps 594 mmHg 96%
    13:00 -3°C° 0.1 mm 2 mps 594 mmHg 97%
    14:00 -3°C° 0.2 mm 2 mps 594 mmHg 97%
    15:00 -4°C° 0.2 mm 2 mps 594 mmHg 97%
    16:00 -4°C° 0.2 mm 2 mps 594 mmHg 97%
    17:00 -4°C° 0.5 mm 2 mps 594 mmHg 97%
    18:00 -5°C° 0.5 mm 2 mps 594 mmHg 97%
    19:00 -3°C° 0.5 mm 1 mps 595 mmHg 97%
    20:00 -3°C° 1.1 mm 1 mps 595 mmHg 97%
    21:00 -4°C° 1.1 mm 1 mps 595 mmHg 97%
    22:00 -4°C° 1.1 mm 1 mps 595 mmHg 97%
    23:00 -4°C° 1.5 mm 1 mps 596 mmHg 97%

    27 January, Saturday

    Time Temperature Precipitation Wind Pressure Humidity
    00:00 -4°C° 1.5 mm 1 mps 596 mmHg 97%
    01:00 -4°C° 1.5 mm 1 mps 596 mmHg 98%
    02:00 -6°C° 1.6 mm 1 mps 596 mmHg 98%
    03:00 -6°C° 1.6 mm 1 mps 596 mmHg 98%
    04:00 -6°C° 1.6 mm 1 mps 596 mmHg 97%
    05:00 -6°C° 1.3 mm 1 mps 596 mmHg 97%
    06:00 -6°C° 1.3 mm 1 mps 596 mmHg 97%
    07:00 -7°C° 1.3 mm 1 mps 597 mmHg 97%
    08:00 -6°C° 0.9 mm 1 mps 597 mmHg 97%
    09:00 -6°C° 0.9 mm 1 mps 598 mmHg 96%
    10:00 -6°C° 0.9 mm 1 mps 598 mmHg 96%
    11:00 -4°C° 0.4 mm 1 mps 599 mmHg 96%
    12:00 -4°C° 0.4 mm 1 mps 599 mmHg 95%
    13:00 -3°C° 0.4 mm 1 mps 599 mmHg 95%
    14:00 -3°C° 0.1 mm 1 mps 600 mmHg 95%
    15:00 -3°C° 0.1 mm 1 mps 600 mmHg 96%
    16:00 -3°C° 0.1 mm 1 mps 600 mmHg 96%
    17:00 -3°C° 0 mm 1 mps 600 mmHg 96%
    18:00 -4°C° 0 mm 1 mps 600 mmHg 96%
    19:00 -6°C° 0 mm 1 mps 600 mmHg 97%
    20:00 -6°C° 0 mm 1 mps 601 mmHg 96%
    21:00 -6°C° 0 mm 1 mps 601 mmHg 95%
    22:00 -7°C° 0 mm 1 mps 601 mmHg 94%
    23:00 -7°C° 0 mm 1 mps 601 mmHg 93%

    28 January, Sunday

    Time Temperature Precipitation Wind Pressure Humidity
    00:00 -8°C° 0 mm 1 mps 601 mmHg 92%
    01:00 -8°C° 0 mm 1 mps 601 mmHg 91%
    02:00 -8°C° 0 mm 1 mps 601 mmHg 90%
    03:00 -8°C° 0 mm 1 mps 600 mmHg 89%
    04:00 -8°C° 0 mm 1 mps 600 mmHg 88%
    05:00 -8°C° 0 mm 1 mps 601 mmHg 87%
    06:00 -8°C° 0 mm 1 mps 601 mmHg 85%
    07:00 -8°C° 0 mm 1 mps 601 mmHg 84%
    08:00 -7°C° 0 mm 1 mps 602 mmHg 84%
    09:00 -4°C° 0 mm 1 mps 603 mmHg 84%
    10:00 -2°C° 0 mm 1 mps 604 mmHg 84%
    11:00 -2°C° 0 mm 1 mps 604 mmHg 88%
    12:00 -1°C° 0 mm 1 mps 604 mmHg 91%
    13:00 0°C° 0 mm 1 mps 604 mmHg 94%
    14:00 -1°C° 0 mm 1 mps 604 mmHg 93%
    15:00 -1°C° 0 mm 1 mps 604 mmHg 92%
    16:00 -1°C° 0 mm 1 mps 603 mmHg 92%
    17:00 -4°C° 0 mm 2 mps 603 mmHg 87%
    18:00 -5°C° 0 mm 2 mps 603 mmHg 82%
    19:00 -6°C° 0 mm 2 mps 603 mmHg 77%
    20:00 -6°C° 0 mm 2 mps 603 mmHg 77%
    21:00 -6°C° 0 mm 2 mps 604 mmHg 77%
    22:00 -5°C° 0 mm 2 mps 604 mmHg 77%
    23:00 -5°C° 0.1 mm 2 mps 604 mmHg 80%
    Show more